{"data":{"norad_id":62235,"epoch":"2026-05-24T21:37:35.567040Z","epoch_age_seconds":79671,"freshness":"FRESH","line1":"1 62235U 24231T   26144.90110610  .00015588  00000+0  51288-3 0  9998","line2":"2 62235  53.1616 212.3611 0001173  82.5941 277.5193 15.31708565 83612","mean_motion":15.31708565,"eccentricity":0.0001173,"inclination_deg":53.1616,"raan_deg":212.3611,"arg_perigee_deg":82.5941,"mean_anomaly_deg":277.5193,"bstar":0.00051288,"rev_number":8361,"period_min":94.012662258633,"perigee_km":469.91109324864,"apogee_km":471.51783380198,"semimajor_km":6848.8514635253,"source":"CELESTRAK","updated_at":"2026-05-25T13:38:19.639529Z"}}